Time,TemperatureF,DewpointF,PressureIn,WindDirection,WindDirectionDegrees,WindSpeedMPH,WindSpeedGustMPH,Humidity,HourlyPrecipIn,Conditions,Clouds,dailyrainin,SoftwareType,DateUTC
2013-04-10 00:10:00,49.2,43.0,29.82,NW,306,4.0,22.0,80,0.00,,,0.00,weatherlink.com 1.10,2013-04-10 05:10:00,
2013-04-10 00:25:00,47.3,42.0,29.80,West,279,16.0,20.0,82,0.00,,,0.00,weatherlink.com 1.10,2013-04-10 05:25:00,
2013-04-10 00:40:00,45.1,40.0,29.80,NW,319,20.0,22.0,83,0.00,,,0.00,weatherlink.com 1.10,2013-04-10 05:40:00,
2013-04-10 00:55:00,45.1,40.0,29.82,WNW,300,6.0,19.0,83,0.00,,,0.00,weatherlink.com 1.10,2013-04-10 05:55:00,
2013-04-10 01:10:00,45.0,40.0,29.83,NNW,342,7.0,19.0,83,0.00,,,0.00,weatherlink.com 1.10,2013-04-10 06:10:00,
2013-04-10 01:25:00,44.7,40.0,29.83,North,355,11.0,20.0,83,0.00,,,0.00,weatherlink.com 1.10,2013-04-10 06:25:00,
2013-04-10 01:40:00,43.8,39.0,29.83,North,351,8.0,16.0,83,0.00,,,0.00,weatherlink.com 1.10,2013-04-10 06:40:00,
2013-04-10 01:55:00,43.9,39.0,29.85,NW,316,6.0,11.0,84,0.00,,,0.00,weatherlink.com 1.10,2013-04-10 06:55:00,
2013-04-10 02:10:00,43.8,39.0,29.86,NNW,329,5.0,12.0,84,0.00,,,0.00,weatherlink.com 1.10,2013-04-10 07:10:00,
2013-04-10 02:25:00,43.9,39.0,29.89,WNW,285,10.0,13.0,84,0.00,,,0.00,weatherlink.com 1.10,2013-04-10 07:25:00,
2013-04-10 02:40:00,43.8,40.0,29.88,NW,323,7.0,14.0,85,0.00,,,0.00,weatherlink.com 1.10,2013-04-10 07:40:00,
2013-04-10 02:55:00,43.3,39.0,29.89,WNW,296,5.0,13.0,86,0.00,,,0.00,weatherlink.com 1.10,2013-04-10 07:55:00,
2013-04-10 03:10:00,43.2,40.0,29.88,NW,321,6.0,10.0,87,0.00,,,0.00,weatherlink.com 1.10,2013-04-10 08:10:00,
2013-04-10 03:25:00,43.4,40.0,29.86,NW,309,10.0,13.0,87,0.00,,,0.00,weatherlink.com 1.10,2013-04-10 08:25:00,
2013-04-10 03:40:00,43.8,40.0,29.89,WNW,288,11.0,13.0,87,0.00,,,0.00,weatherlink.com 1.10,2013-04-10 08:40:00,
2013-04-10 03:55:00,44.0,40.0,29.86,NW,311,9.0,13.0,87,0.00,,,0.00,weatherlink.com 1.10,2013-04-10 08:55:00,
2013-04-10 04:10:00,44.0,41.0,29.90,NW,305,8.0,15.0,88,0.00,,,0.00,weatherlink.com 1.10,2013-04-10 09:10:00,
2013-04-10 04:25:00,43.6,41.0,29.88,WNW,300,10.0,13.0,90,0.02,,,0.02,weatherlink.com 1.10,2013-04-10 09:25:00,
2013-04-10 04:41:00,42.6,40.0,29.87,NNW,328,13.0,17.0,91,0.03,,,0.03,weatherlink.com 1.10,2013-04-10 09:41:00,
2013-04-10 04:56:00,41.5,39.0,29.87,NNW,337,10.0,20.0,90,0.04,,,0.04,weatherlink.com 1.10,2013-04-10 09:56:00,
2013-04-10 05:11:00,41.0,39.0,29.86,NW,309,8.0,18.0,91,0.04,,,0.04,weatherlink.com 1.10,2013-04-10 10:11:00,
2013-04-10 05:26:00,40.0,37.0,29.87,NW,317,6.0,17.0,89,0.02,,,0.04,weatherlink.com 1.10,2013-04-10 10:26:00,
2013-04-10 05:41:00,40.1,38.0,29.86,North,5,6.0,15.0,90,0.01,,,0.04,weatherlink.com 1.10,2013-04-10 10:41:00,
2013-04-10 05:56:00,40.4,38.0,29.86,North,355,9.0,15.0,89,0.00,,,0.04,weatherlink.com 1.10,2013-04-10 10:56:00,
2013-04-10 06:41:00,40.4,38.0,29.90,NNW,337,7.0,10.0,90,0.01,,,0.05,weatherlink.com 1.10,2013-04-10 11:41:00,
2013-04-10 07:26:00,40.2,38.0,29.92,NW,309,3.0,18.0,90,0.02,,,0.07,weatherlink.com 1.10,2013-04-10 12:26:00,
2013-04-10 07:56:00,39.3,37.0,29.93,North,5,6.0,20.0,90,0.08,,,0.15,weatherlink.com 1.10,2013-04-10 12:56:00,
2013-04-10 08:11:00,38.9,37.0,29.91,NNW,333,6.0,12.0,92,0.11,,,0.18,weatherlink.com 1.10,2013-04-10 13:11:00,
2013-04-10 08:26:00,38.8,36.0,29.94,WNW,292,13.0,17.0,91,0.12,,,0.19,weatherlink.com 1.10,2013-04-10 13:26:00,
2013-04-10 08:41:00,39.2,37.0,29.95,NW,311,7.0,13.0,91,0.12,,,0.19,weatherlink.com 1.10,2013-04-10 13:41:00,
2013-04-10 08:56:00,38.9,36.0,29.95,NNW,345,9.0,19.0,90,0.04,,,0.19,weatherlink.com 1.10,2013-04-10 13:56:00,
2013-04-10 09:11:00,38.9,36.0,29.93,NNW,340,7.0,17.0,90,0.01,,,0.19,weatherlink.com 1.10,2013-04-10 14:11:00,
2013-04-10 09:26:00,38.7,36.0,29.93,North,355,8.0,19.0,90,0.00,,,0.19,weatherlink.com 1.10,2013-04-10 14:26:00,
2013-04-10 09:41:00,38.4,36.0,29.95,NW,304,5.0,15.0,90,0.00,,,0.19,weatherlink.com 1.10,2013-04-10 14:41:00,
2013-04-10 09:56:00,38.3,36.0,29.94,WNW,296,7.0,16.0,91,0.03,,,0.22,weatherlink.com 1.10,2013-04-10 14:56:00,
2013-04-10 10:11:00,38.3,36.0,29.97,WNW,292,9.0,17.0,91,0.04,,,0.23,weatherlink.com 1.10,2013-04-10 15:11:00,
2013-04-10 10:26:00,38.2,36.0,29.96,NNW,328,6.0,18.0,91,0.04,,,0.23,weatherlink.com 1.10,2013-04-10 15:26:00,
2013-04-10 10:41:00,37.9,35.0,29.92,NNW,335,12.0,19.0,90,0.04,,,0.23,weatherlink.com 1.10,2013-04-10 15:41:00,
2013-04-10 10:56:00,38.2,36.0,29.93,North,355,8.0,15.0,90,0.01,,,0.23,weatherlink.com 1.10,2013-04-10 15:56:00,
2013-04-10 11:11:00,38.3,35.0,29.95,NW,319,9.0,17.0,89,0.00,,,0.23,weatherlink.com 1.10,2013-04-10 16:11:00,
2013-04-10 11:27:00,38.7,36.0,29.96,NW,324,5.0,12.0,89,0.00,,,0.23,weatherlink.com 1.10,2013-04-10 16:27:00,
2013-04-10 11:41:00,38.8,36.0,29.97,NW,325,14.0,16.0,88,0.00,,,0.23,weatherlink.com 1.10,2013-04-10 16:41:00,
2013-04-10 12:26:00,38.5,36.0,29.98,WNW,291,4.0,13.0,89,0.02,,,0.25,weatherlink.com 1.10,2013-04-10 17:26:00,
2013-04-10 12:41:00,38.4,36.0,29.99,WNW,298,6.0,14.0,90,0.02,,,0.25,weatherlink.com 1.10,2013-04-10 17:41:00,
2013-04-10 13:11:00,38.3,36.0,29.99,WNW,293,5.0,17.0,91,0.01,,,0.26,weatherlink.com 1.10,2013-04-10 18:11:00,
2013-04-10 13:26:00,38.3,36.0,29.95,NNW,328,8.0,12.0,91,0.02,,,0.27,weatherlink.com 1.10,2013-04-10 18:26:00,
2013-04-10 13:56:00,39.1,36.0,29.92,NNW,338,9.0,18.0,89,0.02,,,0.28,weatherlink.com 1.10,2013-04-10 18:56:00,
2013-04-10 14:11:00,39.5,37.0,29.89,NW,321,13.0,19.0,89,0.02,,,0.28,weatherlink.com 1.10,2013-04-10 19:11:00,
2013-04-10 14:26:00,39.8,37.0,29.95,WNW,296,8.0,14.0,88,0.01,,,0.28,weatherlink.com 1.10,2013-04-10 19:26:00,
2013-04-10 14:41:00,39.5,36.0,29.99,WSW,257,7.0,16.0,88,0.00,,,0.28,weatherlink.com 1.10,2013-04-10 19:41:00,
2013-04-10 14:56:00,38.7,36.0,30.00,WSW,256,7.0,16.0,88,0.01,,,0.29,weatherlink.com 1.10,2013-04-10 19:56:00,
2013-04-10 15:11:00,38.2,36.0,29.91,NW,323,6.0,15.0,90,0.03,,,0.31,weatherlink.com 1.10,2013-04-10 20:11:00,
2013-04-10 15:26:00,38.0,36.0,29.94,NW,306,13.0,18.0,91,0.07,,,0.00,weatherlink.com 1.10,2013-04-10 20:26:00,
2013-04-10 15:41:00,37.8,36.0,29.95,WNW,284,10.0,15.0,92,0.11,,,0.04,weatherlink.com 1.10,2013-04-10 20:41:00,
2013-04-10 15:57:00,37.5,35.0,29.88,NW,304,8.0,19.0,92,0.13,,,0.08,weatherlink.com 1.10,2013-04-10 20:57:00,
2013-04-10 16:11:00,37.8,36.0,29.93,WNW,292,12.0,15.0,91,0.13,,,0.09,weatherlink.com 1.10,2013-04-10 21:11:00,
2013-04-10 16:26:00,38.0,35.0,29.93,NW,319,9.0,16.0,90,0.08,,,0.09,weatherlink.com 1.10,2013-04-10 21:26:00,
2013-04-10 16:42:00,38.2,36.0,29.91,NNW,338,17.0,17.0,90,0.05,,,0.09,weatherlink.com 1.10,2013-04-10 21:42:00,
2013-04-10 16:57:00,38.2,35.0,29.92,NNW,330,5.0,17.0,89,0.01,,,0.09,weatherlink.com 1.10,2013-04-10 21:57:00,
2013-04-10 17:12:00,38.2,35.0,29.91,WNW,293,4.0,19.0,89,0.00,,,0.09,weatherlink.com 1.10,2013-04-10 22:12:00,
2013-04-10 17:27:00,38.3,35.0,29.91,NW,321,10.0,16.0,88,0.00,,,0.09,weatherlink.com 1.10,2013-04-10 22:27:00,
2013-04-10 17:42:00,38.7,36.0,29.92,NNW,340,9.0,15.0,88,0.00,,,0.09,weatherlink.com 1.10,2013-04-10 22:42:00,
2013-04-10 17:57:00,38.9,35.0,29.93,NW,311,9.0,13.0,87,0.00,,,0.09,weatherlink.com 1.10,2013-04-10 22:57:00,
2013-04-10 18:12:00,39.2,35.0,29.94,NW,321,5.0,14.0,86,0.00,,,0.09,weatherlink.com 1.10,2013-04-10 23:12:00,
2013-04-10 18:27:00,39.2,35.0,29.94,NW,319,9.0,16.0,86,0.00,,,0.09,weatherlink.com 1.10,2013-04-10 23:27:00,
2013-04-10 18:42:00,39.2,35.0,29.94,NW,319,7.0,14.0,85,0.00,,,0.09,weatherlink.com 1.10,2013-04-10 23:42:00,
2013-04-10 18:57:00,38.9,35.0,29.94,NW,316,9.0,12.0,85,0.00,,,0.09,weatherlink.com 1.10,2013-04-10 23:57:00,
2013-04-10 19:13:00,38.6,35.0,29.93,NW,304,3.0,13.0,86,0.00,,,0.09,weatherlink.com 1.10,2013-04-11 00:13:00,
2013-04-10 19:27:00,38.4,35.0,29.94,WNW,284,8.0,12.0,86,0.00,,,0.09,weatherlink.com 1.10,2013-04-11 00:27:00,
2013-04-10 19:42:00,38.2,35.0,29.96,WNW,296,2.0,13.0,87,0.00,,,0.09,weatherlink.com 1.10,2013-04-11 00:42:00,
2013-04-10 19:57:00,38.2,35.0,29.98,WNW,282,3.0,10.0,88,0.00,,,0.09,weatherlink.com 1.10,2013-04-11 00:57:00,
2013-04-10 20:12:00,38.2,34.0,29.99,WNW,297,8.0,14.0,86,0.00,,,0.09,weatherlink.com 1.10,2013-04-11 01:12:00,
2013-04-10 20:27:00,37.8,34.0,29.99,West,275,8.0,15.0,85,0.00,,,0.09,weatherlink.com 1.10,2013-04-11 01:27:00,
2013-04-10 20:42:00,37.6,34.0,29.99,WNW,290,6.0,13.0,85,0.00,,,0.09,weatherlink.com 1.10,2013-04-11 01:42:00,
2013-04-10 20:57:00,37.3,33.0,29.99,WNW,302,5.0,16.0,85,0.00,,,0.09,weatherlink.com 1.10,2013-04-11 01:57:00,
2013-04-10 21:12:00,37.1,33.0,30.00,NNW,340,17.0,17.0,84,0.00,,,0.09,weatherlink.com 1.10,2013-04-11 02:12:00,
2013-04-10 21:27:00,37.1,33.0,30.00,WNW,302,13.0,15.0,84,0.00,,,0.09,weatherlink.com 1.10,2013-04-11 02:27:00,
2013-04-10 21:42:00,37.0,33.0,30.01,WNW,300,7.0,13.0,84,0.00,,,0.09,weatherlink.com 1.10,2013-04-11 02:42:00,
2013-04-10 21:57:00,36.9,33.0,30.02,NW,304,7.0,14.0,84,0.00,,,0.09,weatherlink.com 1.10,2013-04-11 02:57:00,
2013-04-10 22:12:00,36.8,32.0,30.01,WNW,289,11.0,16.0,84,0.00,,,0.09,weatherlink.com 1.10,2013-04-11 03:12:00,
2013-04-10 22:43:00,36.5,33.0,30.02,NW,306,9.0,16.0,86,0.00,,,0.09,weatherlink.com 1.10,2013-04-11 03:43:00,
2013-04-10 22:58:00,36.4,33.0,30.00,WNW,291,4.0,12.0,86,0.00,,,0.09,weatherlink.com 1.10,2013-04-11 03:58:00,
2013-04-10 23:13:00,36.4,33.0,30.00,NW,304,5.0,14.0,86,0.00,,,0.09,weatherlink.com 1.10,2013-04-11 04:13:00,
2013-04-10 23:28:00,36.5,32.0,30.01,West,271,5.0,12.0,85,0.00,,,0.09,weatherlink.com 1.10,2013-04-11 04:28:00,
2013-04-10 23:43:00,36.6,33.0,30.01,NNW,327,8.0,11.0,85,0.00,,,0.09,weatherlink.com 1.10,2013-04-11 04:43:00,
2013-04-10 23:58:00,36.7,32.0,30.02,WNW,294,12.0,12.0,84,0.00,,,0.09,weatherlink.com 1.10,2013-04-11 04:58:00,